Search your local weather  

 
Advertise Here

Hazardous Weather Conditions

No active alerts for PHOENIX, ARIZONA

Current Conditions: PHOENIX, ARIZONA

Fair


84.0 F

Last Updated on Apr 21 2019, 3:53 pm MST
Humidity: 15%
Wind Speed: W 17.3 G 21.9 mph
Barometer 29.81 in
Dewpoint: 30.9 F
Visibility: 10.00 mi
Precip: --
Heat Index: 81 F
Wind Chill: NA
Current conditions at:

Phoenix, Phoenix-Deer Valley Municipal Airport, AZ (KDVT)

Lat: 33.69 Lon: -112.06

Local Radar Image active severe weather and emergency alerts image image weather storm and storm spotter reports image weather observation monitoring service image
Local
Radar
Active
Alerts
Storm Reports Weather
Monitoring

Weather Alert Notification Services


ialert severe weather and emergency alerts by text message and email ialert daily weather forecast by email and text message service ialert real-time weather-observation monitoring and alert notification service ialert storm report monitoring alert notification

Observation History for PHOENIX, ARIZONA


Time Wind
(mph)
Vis
(mi)
Weather Precip (in) Temperature (F) Relative
Humidity
Wind
Chill
(°F)
Heat
Index
(°F)
Pressure
Air Dwpt altimeter
(in)
sea level
(mb)
3:53 pm MST W 17.3 G 21.9 10.00 Fair -- 84.0 30.9 15% NA 81 29.81 1007.2
2:53 pm MST SW 12.7 G 23.0 10.00 Fair -- 83.0 32.0 16% NA 80 29.82 1007.8
1:53 pm MST SW 8.1 G 17.3 10.00 Fair -- 81.0 33.1 18% NA 79 29.85 1008.6
12:53 pm MST W 12.7 G 18.4 10.00 Fair -- 83.0 28.9 14% NA 80 29.86 1009.0
11:53 am MST 3.5 10.00 Fair -- 78.0 37.0 23% NA NA 29.87 1009.5
10:53 am MST 4.6 10.00 Fair -- 77.0 39.0 26% NA NA 29.89 1010.0
9:53 am MST 10.00 Fair -- 75.0 39.9 28% NA NA 29.90 1010.2
8:53 am MST N 0.0 10.00 Fair -- 73.0 39.0 29% NA NA 29.89 1010.0
7:53 am MST S 4.6 10.00 Fair -- 70.0 39.0 32% NA NA 29.88 1009.9
6:53 am MST E 8.1 10.00 Fair -- 69.0 37.9 32% NA NA 29.87 1009.4
5:53 am MST E 5.8 10.00 Fair -- 65.0 37.0 36% NA NA 29.85 1008.6
4:53 am MST SE 5.8 10.00 Fair -- 68.0 37.9 33% NA NA 29.84 1008.3
3:53 am MST SE 5.8 10.00 Fair -- 69.0 37.9 32% NA NA 29.83 1007.9
2:53 am MST S 8.1 10.00 Fair -- 70.0 36.0 29% NA NA 29.81 1007.3
1:53 am MST S 3.5 10.00 Fair -- 70.0 34.0 27% NA NA 29.82 1007.5
12:53 am MST SW 9.2 10.00 Fair -- 73.0 33.1 23% NA NA 29.81 1007.1
11:53 pm MST SW 10.4 10.00 Fair -- 76.0 32.0 20% NA NA 29.80 1006.9
10:53 pm MST SW 8.1 10.00 Fair -- 77.0 34.0 21% NA NA 29.79 1006.4
9:53 pm MST SW 11.5 10.00 Fair -- 79.0 32.0 18% NA NA 29.78 1006.2
8:53 pm MST SW 4.6 10.00 Fair -- 81.0 30.9 16% NA 79 29.77 1005.7
7:53 pm MST SW 5.8 10.00 Fair -- 82.0 30.0 15% NA 80 29.75 1005.1
6:53 pm MST W 13.8 10.00 Fair -- 85.0 30.0 14% NA 82 29.74 1005.0
5:53 pm MST SW 10.4 G 23.0 10.00 Fair -- 87.0 30.0 13% NA 83 29.75 1005.0
4:53 pm MST SW 16.1 G 23.0 10.00 Fair -- 89.0 30.0 12% NA 85 29.75 1005.2

Regional Weather Observation

Glendale, Glendale Municipal Airport, AZ (KGEU)

Clear
88.0 F

Luke Air Force Base / Phoenix, AZ (KLUF)

Fair
86.0 F

Phoenix, Phoenix Sky Harbor International Airport, AZ (KPHX)

A Few Clouds
88.0 F

Goodyear Municipal, AZ (KGYR)

Clear
88.0 F

Buckeye Municipal Airport, AZ (KBXK)

Fair
86.0 F

Scottsdale Airport, AZ (KSDL)

Fair
86.0 F
Advertise Here

Advertise Here